Погода в Буинске

Россия / Республика Татарстан     54°57′50″N   48°17′24″E
темп.,
°C
ветер,
м/с
пор.,
м/с
влажн.,
%
обл.,
%
осадки,
мм/ч
давл.,
гПа
погр.,
м
17 апреля, сб
сб1700:00+8св5117045 0.0 1024295
03:00+6св410757 0.0 1025244
06:00+5всв511755 0.0 1025292
09:00+10всв710565 0.0 1025532
12:00+12всв78435 0.0 1025833
15:00+13всв78395 0.0 1024932
18:00+11всв59425 0.0 1024425
21:00+8всв411490 0.0 1024248
18 апреля, вс
вс1800:00+6св411673 0.0 1024243
03:00+4всв49710 0.0 1024190
06:00+4всв411703 0.0 1023291
09:00+9всв68505 0.0 1023770
12:00+12всв78400 0.0 10231041
15:00+13всв893887 0.0 10231315
18:00+11всв61047100 0.0 1023632
21:00+8всв91466100 0.0 1024605
19 апреля, пн
пн1900:00+5всв7136498 0.0 1025482
03:00+4всв6125894 0.0 1026428
06:00+3всв7136660 0.0 1027511
09:00+4всв91154100 0.0 1028730
12:00+7всв91050100 0.0 10281148
15:00+8в81048100 0.0 10281522
18:00+7в61060100 0.0 10281123
21:00+5в71165100 0.0 1029983
20 апреля, вт
вт2000:00+5в6116692 0.0 1029818
03:00+2в612675 0.0 1029380
06:00+2в7136639 0.0 1030511
09:00+6вюв8104646 0.0 1030939
12:00+9вюв911415 0.0 10291320
15:00+11юв810408 0.0 10271537
18:00+9вюв71245100 0.0 10261239
21:00+7вюв71447100 0.0 1026828
21 апреля, ср
ср2100:00+6юв8164795 0.0 1025731
03:00+5юв91848100 0.0 1024646
06:00+5юв91850100 0.0 1022686
09:00+4ююв91866100 0.5 1023852
12:00+3юв91883100 1.9 1024754
15:00+3ююв91789100 5.1 1024721
18:00+4ююв81691100 2.3 1024688
21:00+4ююв71593100 3.0 1025671